Wind_Speed
3 3 1 2 3 1 2 3 5 4 8 5 6 5 3 8 10 11 15 20 21 18 17 13 11 10 8 6 4 3 2 3 4 5 5 8 12 14 15 16 18 18 19 19
3 3 1 5 4 5 6 5 6 7 9 8 7 13 10 10 11 10 13 15 17 17 17 15 13 12 12 8 5 5 5 5 3 3 3 4 8 12 12 13 17 18 19 21
12 3 3 8 6 7 6 6 6 6 8 6 5 7 9 10 12 14 15 15 14 13 14 16 16 15 15 10 10 9 8 7 6 3 3 2 4 7 9 12 14 17 20 21
3 4 7 7 5 5 9 7 8 7 6 11 14 10 8 6 9 13 16 16 15 13 14 18 16 18 14 11 9 10 9 7 6 3 1 1 2 5 7 9 13 16 19 20
4 7 5 5 5 4 1 6 3 8 8 13 17 10 5 8 10 10 12 14 11 12 16 18 19 17 14 12 9 9 9 7 5 3 3 4 5 6 6 8 11 15 18 18
1 4 7 5 12 23 3 4 1 12 9 13 16 3 4 13 12 13 13 12 14 17 17 17 17 15 13 11 9 7 7 6 5 5 5 4 5 5 5 6 9 13 15 17
5 5 6 5 9 4 6 5 15 19 20 18 5 7 3 9 13 12 13 14 16 17 18 17 15 12 12 11 11 8 7 6 6 5 5 5 3 3 3 5 8 12 14 14
3 4 9 6 5 9 5 11 19 14 18 13 7 6 7 10 15 16 16 18 16 17 19 17 13 12 11 10 10 9 7 6 5 4 3 3 2 2 2 4 6 8 10 12
7 6 6 6 3 5 4 8 11 13 16 12 11 10 11 15 19 18 16 15 14 16 20 16 13 11 12 9 10 9 7 6 6 4 2 1 2 3 4 4 5 7 10 11
3 4 6 18 14 12 9 9 11 13 15 14 9 9 15 23 22 19 18 18 16 18 19 18 14 14 12 9 9 8 7 7 6 5 4 1 1 2 4 5 6 9 11 14
2 3 3 9 14 13 12 13 15 13 10 10 11 11 15 22 23 19 21 22 20 20 23 21 18 16 16 13 11 12 10 10 8 7 5 3 2 2 4 6 6 7 10 13
4 6 4 5 4 7 11 11 12 14 14 14 13 12 16 21 23 22 27 26 24 24 23 19 19 19 19 16 15 15 13 12 11 9 8 6 5 3 2 4 6 8 11 14
8 8 8 10 12 15 19 20 20 20 19 16 16 16 15 20 22 24 27 27 26 25 22 19 19 21 21 19 18 16 14 14 13 12 10 8 7 6 4 3 3 6 8 10
11 14 16 19 16 15 12 15 14 21 17 15 16 15 16 20 21 25 28 27 26 24 22 21 19 19 19 19 19 18 16 13 12 10 10 10 9 8 6 5 5 8 9 9
32 31 28 25 22 22 22 23 17 21 20 21 19 18 20 23 21 24 24 27 25 22 22 22 20 18 17 18 18 17 16 14 12 10 9 9 9 9 8 7 7 9 10 13
25 23 21 23 22 22 24 20 21 25 26 25 22 20 21 22 19 21 27 28 26 25 24 23 20 17 17 17 17 17 17 14 11 10 8 8 9 8 9 9 9 10 12 14
20 23 26 28 25 21 22 20 17 27 28 24 21 22 26 25 23 24 28 26 22 18 21 20 19 18 17 16 16 16 15 12 9 9 8 7 8 10 11 10 10 11 13 14
25 32 32 29 29 27 24 19 16 23 25 19 19 24 28 28 27 27 27 25 22 21 22 20 18 16 16 16 17 16 13 10 8 8 7 8 9 10 11 10 10 11 13 14
17 18 22 26 28 27 28 26 23 26 23 22 23 26 26 26 23 25 27 25 24 24 23 20 17 16 16 17 17 15 12 10 8 8 9 10 9 9 10 11 11 12 12 13
14 14 17 21 23 26 27 27 29 27 23 24 24 26 26 25 23 23 23 22 20 18 17 18 17 16 16 17 17 14 12 11 11 10 11 11 11 12 13 13 12 12 13 14
9 8 9 11 14 17 20 24 30 25 26 25 26 22 25 23 22 22 22 23 20 17 16 16 16 15 16 17 17 15 13 10 10 12 12 12 12 13 13 13 13 14 14 15
4 2 1 2 6 12 17 20 21 23 24 23 19 22 23 23 24 23 19 17 18 19 18 18 16 15 16 15 14 13 12 10 10 11 12 12 12 12 13 13 14 14 15 15
5 4 4 6 9 12 16 18 16 14 17 18 19 19 21 22 23 24 23 20 18 17 17 15 13 15 15 12 12 11 10 9 10 11 12 12 12 12 12 13 13 13 12 11
7 7 7 9 11 14 16 14 13 13 14 15 15 17 19 22 21 19 17 15 16 16 15 13 15 14 13 10 10 10 9 10 10 10 11 12 11 11 10 10 10 10 11 10
8 8 9 10 11 12 12 13 14 15 16 17 17 16 16 15 16 17 18 17 14 14 14 14 14 14 12 10 10 9 9 9 10 11 11 11 11 11 11 10 10 10 9 9
7 8 9 9 11 14 15 15 16 16 17 18 18 17 17 17 16 14 15 15 14 13 13 14 15 14 12 11 10 9 10 10 10 11 11 12 11 11 10 9 9 9 9 9
9 9 11 11 11 12 13 13 14 15 15 15 17 18 18 16 15 14 14 15 15 15 13 13 15 14 13 12 10 10 10 10 11 11 11 11 10 9 9 9 9 8 8 9
Wind_Direction
120 128 154 207 188 151 171 186 196 220 236 213 243 261 175 154 148 164 200 215 219 226 226 221 205 190 188 202 218 212 277 326 334 347 4 15 11 17 22 25 27 29 32 37
261 173 265 280 228 230 220 217 230 217 248 237 170 144 147 166 168 184 202 215 221 225 221 210 192 187 184 213 228 230 256 265 284 300 297 353 4 11 16 23 26 29 32 35
243 244 322 283 216 221 218 205 205 233 243 136 137 139 150 179 204 207 214 221 214 215 204 193 189 191 195 220 224 229 240 240 253 260 248 296 352 10 24 28 26 30 34 34
164 131 229 240 208 217 233 234 218 236 154 161 164 159 157 190 212 218 221 223 214 204 191 179 186 193 210 220 226 240 241 246 254 261 240 264 5 19 27 26 29 33 36 36
166 209 290 303 292 208 183 271 276 153 140 141 144 141 203 218 223 253 237 223 216 200 187 183 192 209 213 213 222 234 229 231 228 212 160 102 82 64 42 25 26 29 31 33
172 209 228 205 228 262 159 243 246 135 140 143 154 135 255 210 221 224 219 211 196 188 190 195 201 213 217 215 220 210 194 180 159 128 132 124 99 91 54 34 19 22 25 25
192 236 277 232 252 202 218 234 172 160 169 166 181 203 237 208 215 223 220 203 194 194 199 205 200 208 219 225 213 191 169 161 158 122 91 61 55 56 17 17 10 9 18 25
152 215 267 212 284 239 236 168 172 167 171 179 206 220 241 229 206 195 188 181 194 202 201 201 197 193 198 197 188 177 166 158 162 161 107 60 5 18 8 346 348 0 12 23
180 205 207 194 184 143 143 156 161 170 181 194 193 221 227 211 197 195 200 196 192 191 185 188 183 192 189 177 184 172 167 171 180 172 154 76 59 52 41 38 29 29 29 28
119 256 211 214 202 175 181 213 197 196 189 194 211 241 217 196 193 203 206 202 194 187 189 185 191 200 216 206 197 191 196 196 201 204 187 181 6 27 30 41 39 36 32 34
267 279 318 244 231 239 183 173 174 181 206 237 233 235 223 204 202 214 208 201 198 192 187 188 195 203 204 205 214 208 209 211 203 209 230 236 262 313 356 14 19 22 23 28
209 186 162 250 171 217 229 220 238 240 227 230 238 238 221 213 207 210 202 199 196 197 201 205 203 203 202 211 219 218 217 217 224 226 228 247 262 270 317 344 351 360 10 12
226 233 265 277 274 258 249 261 263 244 234 226 230 235 228 212 205 207 203 202 202 203 205 207 205 207 209 215 214 220 226 226 230 230 240 248 246 253 270 294 319 316 337 346
267 287 285 269 268 274 263 290 298 234 231 235 233 232 228 206 196 203 206 206 203 203 205 210 212 215 216 215 214 222 229 230 230 235 237 238 242 249 256 269 279 286 310 317
269 271 270 275 277 275 263 270 238 219 231 218 223 231 214 201 200 201 203 200 202 209 213 211 214 214 218 217 222 230 232 235 236 239 239 237 236 239 249 263 273 289 295 308
267 271 274 266 270 271 271 261 229 231 219 215 220 222 217 207 202 195 198 204 203 206 210 212 217 222 223 225 227 226 226 229 232 234 233 233 239 249 258 269 281 285 289 299
262 264 262 263 262 265 265 265 265 237 217 215 221 214 203 198 193 196 200 206 213 219 216 217 218 221 227 231 223 217 218 223 229 234 239 246 255 259 266 275 281 285 293 304
273 270 269 265 258 261 263 251 236 219 211 214 213 207 199 198 198 198 200 201 204 208 209 210 216 227 228 224 217 217 219 224 230 241 256 259 260 265 268 279 285 289 296 301
293 275 266 260 257 256 252 246 227 216 209 204 201 201 203 204 206 202 200 199 201 202 201 207 219 227 222 216 218 219 224 238 249 255 256 263 267 263 269 280 286 291 291 291
287 282 273 261 255 255 248 237 217 204 204 199 198 195 197 200 203 203 200 205 210 214 217 218 219 220 216 215 219 223 230 243 254 257 262 265 266 268 274 280 283 288 293 298
304 307 297 284 266 244 227 220 196 197 197 197 194 201 197 198 197 196 196 201 203 207 216 219 224 218 213 216 219 226 233 241 248 256 263 268 267 268 273 279 285 289 294 298
272 243 209 227 194 172 173 183 191 187 187 195 191 194 195 193 190 193 206 214 211 213 215 219 220 213 212 217 221 224 235 247 254 261 263 269 274 277 279 280 283 289 294 300
226 211 201 184 179 181 171 168 180 193 191 185 188 195 196 195 194 195 203 207 211 212 213 217 214 208 210 215 221 225 239 251 259 265 272 275 275 277 280 284 291 294 296 294
220 204 190 177 176 177 176 172 170 173 183 188 189 188 190 191 195 204 215 212 206 204 208 211 208 209 210 215 211 227 245 258 268 271 271 274 278 286 291 294 295 293 292 302
214 211 201 187 186 190 188 182 184 185 184 180 180 184 192 200 216 213 206 202 199 200 204 207 211 210 212 219 225 242 260 268 269 274 280 283 287 290 294 297 297 296 300 300
224 215 198 199 200 194 192 192 190 184 183 182 182 186 190 197 203 206 202 199 200 199 203 207 208 209 218 227 234 250 264 274 279 281 285 285 287 289 292 292 288 288 291 297
208 198 186 186 192 201 199 194 192 192 192 193 193 193 199 201 200 196 196 196 198 200 203 208 210 216 226 229 238 254 271 278 280 280 282 282 281 283 283 280 284 288 293 301
Height
1466 1467 1467 1469 1470 1471 1473 1476 1482 1484 1477 1477 1473 1474 1475 1477 1478 1478 1481 1483 1485 1487 1489 1492 1494 1495 1497 1498 1498 1500 1500 1498 1497 1496 1495 1493 1489 1486 1483 1481 1478 1474 1470 1466
1474 1465 1467 1469 1473 1471 1472 1472 1472 1472 1472 1467 1468 1470 1473 1475 1475 1476 1477 1479 1481 1483 1486 1489 1492 1493 1495 1496 1496 1498 1498 1497 1497 1497 1495 1492 1490 1487 1485 1482 1480 1476 1472 1466
1464 1464 1466 1473 1480 1470 1462 1461 1462 1467 1462 1466 1470 1470 1471 1472 1473 1473 1473 1474 1476 1479 1481 1486 1489 1491 1492 1494 1495 1496 1496 1496 1496 1496 1494 1492 1490 1488 1486 1483 1481 1477 1473 1469
1469 1469 1478 1457 1452 1453 1454 1452 1453 1454 1458 1460 1464 1465 1467 1469 1470 1469 1470 1471 1473 1476 1480 1482 1486 1489 1491 1492 1493 1494 1495 1495 1495 1494 1493 1491 1490 1488 1487 1484 1481 1479 1475 1471
1466 1464 1459 1455 1451 1451 1452 1452 1448 1451 1456 1460 1462 1464 1465 1466 1466 1466 1466 1468 1472 1474 1478 1480 1484 1486 1488 1490 1491 1492 1492 1493 1493 1492 1491 1491 1490 1489 1487 1485 1482 1479 1477 1473
1470 1468 1467 1453 1444 1443 1446 1458 1448 1448 1455 1457 1461 1469 1465 1462 1463 1464 1464 1467 1470 1473 1477 1479 1482 1484 1486 1487 1489 1490 1490 1491 1491 1491 1490 1490 1489 1489 1487 1485 1482 1481 1478 1474
1464 1461 1454 1443 1441 1444 1454 1454 1445 1448 1451 1454 1457 1456 1457 1458 1460 1462 1463 1465 1469 1471 1474 1477 1480 1482 1484 1485 1487 1488 1489 1489 1490 1490 1490 1489 1489 1489 1487 1485 1483 1481 1479 1476
1461 1464 1462 1440 1442 1447 1443 1439 1442 1445 1447 1450 1452 1453 1455 1455 1456 1458 1460 1464 1468 1470 1473 1476 1479 1480 1482 1483 1485 1486 1487 1488 1488 1489 1489 1489 1489 1488 1487 1485 1483 1481 1479 1477
1444 1446 1436 1436 1438 1438 1439 1439 1440 1443 1445 1446 1449 1451 1452 1453 1454 1457 1460 1463 1465 1467 1470 1473 1476 1478 1480 1482 1483 1484 1486 1487 1487 1488 1489 1489 1488 1487 1486 1485 1483 1481 1479 1477
1436 1432 1430 1431 1433 1434 1438 1440 1440 1441 1442 1444 1446 1447 1448 1450 1451 1454 1457 1459 1462 1465 1468 1470 1473 1476 1478 1480 1482 1483 1484 1486 1486 1487 1488 1487 1487 1486 1485 1484 1482 1481 1479 1477
1433 1429 1428 1428 1430 1432 1434 1435 1437 1439 1439 1440 1441 1442 1444 1446 1447 1449 1453 1456 1458 1461 1464 1467 1470 1473 1475 1477 1479 1481 1483 1484 1485 1485 1485 1486 1485 1485 1484 1483 1482 1480 1479 1477
1434 1426 1428 1430 1428 1432 1433 1433 1433 1433 1434 1435 1437 1438 1440 1442 1444 1446 1449 1452 1456 1459 1462 1465 1468 1471 1473 1476 1477 1479 1481 1482 1483 1483 1484 1484 1483 1483 1482 1481 1480 1478 1477 1476
1422 1423 1424 1425 1426 1427 1428 1428 1428 1427 1427 1429 1431 1433 1435 1436 1439 1442 1446 1449 1452 1456 1460 1462 1465 1468 1471 1473 1475 1478 1479 1480 1481 1481 1481 1481 1481 1481 1481 1480 1479 1477 1477 1476
1418 1419 1420 1421 1421 1422 1422 1422 1422 1422 1423 1425 1426 1428 1430 1433 1436 1439 1442 1445 1450 1453 1456 1459 1463 1466 1469 1471 1473 1476 1477 1478 1479 1479 1479 1479 1479 1479 1479 1478 1477 1476 1475 1474
1412 1412 1413 1413 1414 1414 1415 1416 1416 1416 1417 1419 1421 1423 1426 1429 1431 1435 1439 1443 1447 1450 1453 1456 1460 1463 1466 1469 1471 1473 1474 1476 1477 1477 1477 1477 1477 1477 1476 1476 1476 1475 1473 1472
1406 1406 1406 1407 1407 1407 1408 1408 1409 1409 1411 1413 1414 1417 1421 1424 1428 1432 1436 1439 1443 1446 1450 1454 1458 1461 1464 1466 1468 1470 1472 1473 1474 1474 1474 1475 1475 1475 1474 1474 1473 1472 1471 1470
1400 1399 1399 1398 1399 1400 1401 1401 1401 1402 1405 1409 1411 1414 1417 1421 1425 1429 1433 1437 1441 1444 1448 1452 1456 1459 1461 1463 1465 1467 1469 1470 1471 1471 1472 1472 1473 1473 1472 1472 1471 1470 1469 1467
1391 1389 1389 1390 1391 1392 1393 1394 1395 1398 1400 1404 1409 1412 1415 1417 1420 1425 1429 1434 1439 1442 1446 1451 1454 1457 1458 1460 1462 1464 1466 1468 1469 1469 1470 1470 1470 1470 1470 1469 1468 1467 1466 1465
1385 1382 1381 1381 1381 1383 1384 1387 1390 1393 1396 1399 1402 1407 1411 1415 1419 1423 1427 1432 1436 1440 1444 1448 1451 1453 1455 1457 1459 1461 1463 1465 1466 1467 1468 1468 1468 1468 1467 1467 1466 1465 1464 1463
1380 1378 1375 1373 1374 1374 1375 1378 1383 1387 1392 1396 1400 1404 1409 1413 1417 1421 1426 1430 1434 1438 1442 1445 1448 1450 1452 1454 1456 1458 1461 1462 1463 1464 1464 1464 1465 1465 1464 1464 1463 1462 1461 1460
1377 1374 1372 1369 1368 1367 1369 1373 1378 1385 1389 1394 1398 1400 1406 1410 1415 1420 1424 1428 1432 1436 1439 1442 1445 1447 1449 1451 1454 1456 1458 1460 1461 1461 1462 1462 1462 1461 1461 1460 1460 1459 1458 1456
1376 1374 1372 1371 1371 1371 1373 1377 1381 1385 1389 1393 1396 1400 1405 1409 1414 1418 1423 1426 1430 1433 1436 1438 1441 1444 1446 1449 1451 1454 1455 1457 1458 1458 1458 1458 1458 1458 1457 1457 1456 1455 1454 1453
1375 1374 1374 1373 1374 1375 1377 1380 1383 1386 1388 1392 1396 1399 1403 1407 1411 1415 1418 1423 1426 1429 1433 1436 1438 1441 1444 1446 1449 1451 1453 1454 1454 1455 1455 1455 1455 1454 1454 1453 1453 1452 1451 1449
1374 1374 1374 1375 1376 1377 1379 1381 1384 1387 1390 1393 1396 1399 1402 1406 1410 1414 1418 1421 1424 1427 1430 1433 1436 1439 1442 1444 1447 1449 1450 1450 1451 1451 1451 1451 1451 1451 1450 1450 1449 1448 1447 1446
1373 1374 1374 1375 1377 1379 1381 1382 1384 1387 1390 1393 1396 1399 1403 1406 1410 1412 1415 1418 1422 1425 1428 1431 1434 1437 1440 1442 1444 1445 1447 1447 1448 1448 1447 1447 1447 1447 1446 1446 1445 1444 1444 1443
1372 1373 1374 1375 1377 1379 1381 1382 1384 1386 1388 1391 1395 1398 1401 1404 1407 1410 1413 1417 1421 1424 1426 1429 1431 1435 1437 1439 1441 1443 1443 1444 1444 1444 1444 1444 1443 1443 1443 1442 1441 1441 1440 1439
1371 1372 1374 1375 1377 1378 1380 1382 1384 1386 1388 1391 1394 1396 1399 1402 1405 1409 1412 1416 1419 1422 1425 1427 1430 1432 1435 1437 1439 1440 1440 1440 1440 1440 1440 1440 1440 1440 1439 1438 1438 1437 1436 1436